Waterford, MI

3:34 PM EST on February 24, 2017 (GMT -0500)
Oakland County International

Weather History for KPTK - March, 2014

Change the Weather History Date:

Sunday, March 2, 2014

  Actual Average Record
Temperature  
Mean Temperature 9 °F -  
Max Temperature 15 °F 34 °F 51 °F (2004)
Min Temperature 1 °F 20 °F 0 °F (2003)
Degree Days  
Heating Degree Days 56    
Moisture  
Dew Point 2 °F    
Average Humidity 70    
Maximum Humidity 86    
Minimum Humidity 49    
Precipitation  
Precipitation 0.02 in - - ()
Snow  
Snow 0.00 in - - ()
Snow Depth 14.00 in    
Sea Level Pressure  
Sea Level Pressure 30.28 in    
Wind  
Wind Speed 7 mph (NNE)    
Max Wind Speed 13 mph    
Max Gust Speed -    
Visibility 6 miles    
Events Snow    
Averages and records for this station are not official NWS values.
T = Trace of Precipitation, MM = Missing Value Source: NWS Daily Summary

Daily Weather History Graph

Daily Weather History Graph

Search for Another Location

Airport or City:

Trip Planner

Search our weather history database for the weather conditions in past years. The results will help you decide how hot, cold, wet, or windy it might be!

Date:

Astronomy

Mar. 02, 2014 Rise Set
Actual Time 7:07 AM EST 6:24 PM EST
Civil Twilight 6:39 AM EST 6:52 PM EST
Nautical Twilight 6:06 AM EST 7:25 PM EST
Astronomical Twilight 5:34 AM EST 7:58 PM EST
Moon 7:35 AM EST (3/2) 8:23 PM EST (3/2)
Length of Visible Light 12h 13m
Length of Day
11h 16m
Waxing Crescent, 3% of the Moon is Illuminated
Mar 2
Waxing Crescent
Mar 8
First Quarter
Mar 16
Full
Mar 23
Last Quarter
Mar 30
New

Hourly Weather History & Observations

Time (EST) Temp. Windchill Dew Point Humidity Pressure Visibility Wind Dir Wind Speed Gust Speed Precip Events Conditions
12:14 AM 14.0 °F 6.5 °F 10.4 °F 86% 30.22 in 1.0 mi North 4.6 mph - 0.01 in Snow Light Snow
12:44 AM 12.2 °F -1.8 °F 8.6 °F 85% 30.22 in 1.2 mi North 11.5 mph - 0.01 in Snow Light Snow
12:53 AM 12.9 °F -0.9 °F 8.1 °F 81% 30.27 in 1.2 mi NNE 11.5 mph - 0.01 in Snow Light Snow
1:21 AM 12.2 °F 4.3 °F 8.6 °F 85% 30.22 in 2.0 mi NNE 4.6 mph - 0.00 in Snow Light Snow
1:33 AM 12.2 °F 0.7 °F 8.6 °F 85% 30.23 in 2.5 mi North 8.1 mph - 0.00 in Snow Light Snow
1:46 AM 12.2 °F 1.7 °F 8.6 °F 85% 30.23 in 3.0 mi North 6.9 mph - 0.00 in Snow Light Snow
1:53 AM 12.9 °F 1.6 °F 8.1 °F 81% 30.28 in 2.0 mi North 8.1 mph - 0.00 in Snow Light Snow
2:02 AM 12.2 °F 1.7 °F 6.8 °F 79% 30.23 in 1.8 mi North 6.9 mph - 0.00 in Snow Light Snow
2:22 AM 12.2 °F 0.7 °F 6.8 °F 79% 30.22 in 2.5 mi NNE 8.1 mph - 0.00 in Snow Light Snow
2:25 AM 12.2 °F 2.9 °F 6.8 °F 79% 30.23 in 3.0 mi North 5.8 mph - 0.00 in Snow Light Snow
2:50 AM 12.2 °F 1.7 °F 6.8 °F 79% 30.22 in 2.0 mi North 6.9 mph - 0.00 in Snow Light Snow
2:53 AM 10.9 °F -2.6 °F 6.1 °F 81% 30.28 in 1.5 mi North 10.4 mph - 0.00 in Snow Light Snow
3:04 AM 10.4 °F -4.8 °F 5.0 °F 79% 30.24 in 0.8 mi ENE 12.7 mph - 0.00 in Snow Light Snow
3:06 AM 10.4 °F -4.1 °F 5.0 °F 79% 30.23 in 1.0 mi ENE 11.5 mph - 0.00 in Snow Light Snow
3:16 AM 10.4 °F -1.5 °F 5.0 °F 79% 30.25 in 2.0 mi NE 8.1 mph - 0.00 in Snow Light Snow
3:29 AM 8.6 °F -4.7 °F 3.2 °F 79% 30.24 in 1.2 mi NE 9.2 mph - 0.00 in Snow Light Snow
3:53 AM 9.0 °F -3.2 °F 3.9 °F 80% 30.31 in 1.2 mi NE 8.1 mph - 0.01 in Snow Light Snow
4:53 AM 8.1 °F -4.3 °F 3.0 °F 80% 30.32 in 1.5 mi NNE 8.1 mph - 0.00 in Snow Light Snow
5:19 AM 8.6 °F -2.6 °F 3.2 °F 79% 30.26 in 2.0 mi NE 6.9 mph - 0.00 in Snow Light Snow
5:49 AM 6.8 °F -8.6 °F 1.4 °F 79% 30.26 in 3.0 mi ENE 11.5 mph - 0.00 in Snow Light Snow
5:53 AM 7.0 °F -7.5 °F 1.0 °F 77% 30.32 in 3.0 mi ENE 10.4 mph - 0.00 in Snow Light Snow
6:53 AM 7.0 °F -5.7 °F -0.0 °F 73% 30.33 in 3.0 mi NE 8.1 mph - 0.00 in Snow Light Snow
7:53 AM 7.0 °F -4.5 °F -0.0 °F 73% 30.34 in 8.0 mi ENE 6.9 mph - 0.00 in Snow Light Snow
8:00 AM 6.8 °F -4.8 °F -0.4 °F 72% 30.28 in 9.0 mi ENE 6.9 mph - 0.00 in Snow Light Snow
8:53 AM 7.0 °F -6.6 °F -0.9 °F 70% 30.35 in 8.0 mi NE 9.2 mph - 0.00 in Snow Light Snow
9:53 AM 7.0 °F -5.7 °F -2.9 °F 64% 30.34 in 9.0 mi ENE 8.1 mph - 0.00 in Snow Light Snow
10:00 AM 6.8 °F -4.8 °F -2.2 °F 67% 30.28 in 9.0 mi ENE 6.9 mph - 0.00 in   Overcast
10:53 AM 9.0 °F -2.2 °F -2.0 °F 61% 30.33 in 10.0 mi North 6.9 mph - 0.00 in   Overcast
11:53 AM 10.9 °F - -2.0 °F 56% 30.33 in 10.0 mi Calm Calm - N/A   Mostly Cloudy
12:53 PM 12.9 °F 3.8 °F -0.9 °F 54% 30.33 in 10.0 mi NE 5.8 mph - N/A   Mostly Cloudy
1:53 PM 14.0 °F - -0.9 °F 52% 30.29 in 10.0 mi Calm Calm - N/A   Mostly Cloudy
2:26 PM 15.8 °F - -0.4 °F 49% 30.22 in 10.0 mi Calm Calm - N/A   Mostly Cloudy
2:53 PM 15.1 °F 3.3 °F -0.9 °F 49% 30.28 in 10.0 mi NNW 9.2 mph - N/A   Overcast
3:53 PM 14.0 °F 5.1 °F -2.0 °F 49% 30.29 in 10.0 mi NW 5.8 mph - N/A   Overcast
4:53 PM 12.9 °F 1.6 °F -0.9 °F 54% 30.27 in 10.0 mi NNW 8.1 mph - N/A   Overcast
5:53 PM 12.0 °F -0.4 °F -2.0 °F 53% 30.30 in 10.0 mi NW 9.2 mph - N/A   Overcast
6:53 PM 10.0 °F -0.9 °F -4.0 °F 53% 30.31 in 10.0 mi NW 6.9 mph - N/A   Overcast
7:53 PM 8.1 °F -0.5 °F -4.0 °F 58% 30.32 in 10.0 mi NW 4.6 mph - N/A   Overcast
8:53 PM 6.1 °F -0.9 °F -5.1 °F 60% 30.32 in 10.0 mi NW 3.5 mph - N/A   Overcast
9:53 PM 6.1 °F - -5.1 °F 60% 30.35 in 10.0 mi Calm Calm - N/A   Mostly Cloudy
10:53 PM 3.0 °F - -6.0 °F 66% 30.34 in 10.0 mi Calm Calm - N/A   Scattered Clouds
11:53 PM 1.9 °F -9.2 °F -7.1 °F 66% 30.37 in 10.0 mi NW 5.8 mph - N/A   Partly Cloudy